Regional Weather Roundup
Issued by NWS Northern Indiana

Home | Current Version | Previous Version | Text Only | Print | Product List | Glossary Off
Versions: 1 2 3 4 5 6 7 8 9 10 11 12 13 14 15 16 17 18 19 20 21 22 23 24 25 26 27 28 29 30 31 32 33 34 35 36 37 38 39 40 41 42 43 44 45 46 47 48 49 50

000
ASUS43 KIWX 290810
RWRIWX

KIWX WEATHER ROUNDUP
NATIONAL WEATHER SERVICE NORTHERN INDIANA
400 AM EDT TUE JUL 29 2014

NOTE: "FAIR" INDICATES FEW OR NO CLOUDS BELOW 12,000 FEET WITH NO
SIGNIFICANT WEATHER AND/OR OBSTRUCTIONS TO VISIBILITY.

* THESE STATIONS ARE NOT UNDER NWS QUALITY CONTROL. THEY ALSO MAY NOT
  REPORT WEATHER SUCH AS PRECIPITATION OR FOG.

INZ001>027-290900-
NORTHERN INDIANA

CITY           SKY/WX    TMP DP  RH WIND       PRES   REMARKS
GARY*          CLEAR     58  55  89 CALM      30.05S
VALPARAISO     CLEAR     52  50  93 CALM      30.04F
MICHIGAN CITY* CLEAR     52  52 100 CALM      30.04F
LAPORTE*       PTCLDY    51  51 100 CALM      30.04S
KNOX*          CLEAR     51  49  92 SW3       30.03S
SOUTH BEND     CLEAR     53  47  79 CALM      30.03F
GOSHEN         CLEAR     50  47  89 CALM      30.03F
MONTICELLO*    CLOUDY    54  53  94 CALM      30.04F
LOGANSPORT*    CLOUDY    54  50  87 CALM      30.05F
ROCHESTER*     CLEAR     54  50  87 CALM      30.05S
WARSAW*        CLEAR     46  46 100 CALM      30.04S
ANGOLA*        CLEAR     48  46  93 CALM      30.02F
FORT WAYNE     PTCLDY    50  48  93 CALM      30.04S
HUNTINGTON*    CLEAR     49  48  96 CALM      30.03S
PERU/GRISSOM   CLOUDY    54  53  96 W2        30.04S
MARION*        PTCLDY    47  46  97 CALM      30.04S

$$
INZ028>050-290900-
CENTRAL INDIANA

CITY           SKY/WX    TMP DP  RH WIND       PRES   REMARKS
LAFAYETTE      CLOUDY    52  51  97 W3        30.05F
KOKOMO*        MOCLDY    54  48  82 NW5       30.04F
MUNCIE*        PTCLDY    50  47  89 CALM      30.03F
INDIANAPOLIS   PTCLDY    53  48  83 W6        30.04S

$$
MIZ043>046-050>051-056>058-064>065-071>073-077>080-290900-
SOUTHWEST LOWER MICHIGAN

CITY           SKY/WX    TMP DP  RH WIND       PRES   REMARKS
BATTLE CREEK   CLEAR     51  47  86 SW5       30.02S
BENTON HARBOR  PTCLDY    48  46  93 CALM      30.03S
COLDWATER*     CLEAR     50  49  97 CALM      30.02R
HILLSDALE*     CLEAR     47  47 100 CALM      30.01S
HOLLAND        PTCLDY    52  47  83 W5        30.02S
GRAND RAPIDS   CLEAR     53  50  89 W5        30.01F
KALAMAZOO      CLEAR     50  47  89 CALM      30.02S
STURGIS*       CLEAR     48  46  93 CALM      30.02S
THREE RIVERS*  FAIR      50  49  99 CALM      30.03S

$$
OHZ001>008-015>018-024>025-290900-
NORTHWEST OHIO

CITY           SKY/WX    TMP DP  RH WIND       PRES   REMARKS
WAUSEON*       FAIR      46  46 100 NW5       30.01R
DEFIANCE       CLEAR     52  48  86 VRB3      30.02S
FINDLAY        PTCLDY    55  49  80 NW7       29.99S
TOLEDO EXPRESS CLEAR     49  47  93 CALM      30.00S
TOLEDO METCALF CLEAR     53  46  77 W3        30.00F
LIMA           PTCLDY    54  51  90 N5        30.00F

$$
&&



USA.gov is the U.S. government's official web portal to all federal, state and local government web resources and services.